TimeEST,TemperatureF,Dew PointF,Humidity,Sea Level PressureIn,VisibilityMPH,Wind Direction,Wind SpeedMPH,Gust SpeedMPH,PrecipitationIn,Events,Conditions,WindDirDegrees,DateUTC
12:15 AM,30.0,24.4,80,30.17,10.0,Calm,Calm,-,N/A,,Clear,0,2012-11-05 05:15:00
12:35 AM,28.4,23.5,82,30.18,10.0,Calm,Calm,-,N/A,,Clear,0,2012-11-05 05:35:00
12:54 AM,29.3,24.4,82,30.18,10.0,Calm,Calm,-,N/A,,Clear,0,2012-11-05 05:54:00
1:15 AM,27.5,23.4,84,30.17,10.0,Calm,Calm,-,N/A,,Clear,0,2012-11-05 06:15:00
1:35 AM,27.3,23.2,84,30.17,10.0,Calm,Calm,-,N/A,,Clear,0,2012-11-05 06:35:00
1:55 AM,27.0,22.8,84,30.17,10.0,Calm,Calm,-,N/A,,Clear,0,2012-11-05 06:55:00
2:15 AM,27.0,22.8,84,30.18,10.0,Calm,Calm,-,N/A,,Clear,0,2012-11-05 07:15:00
2:35 AM,27.5,23.2,84,30.18,10.0,NNW,3.5,-,N/A,,Clear,330,2012-11-05 07:35:00
2:55 AM,27.7,23.2,83,30.18,10.0,NW,3.5,-,N/A,,Clear,310,2012-11-05 07:55:00
3:15 AM,27.1,22.6,83,30.18,10.0,Calm,Calm,-,N/A,,Clear,0,2012-11-05 08:15:00
3:35 AM,26.4,22.3,84,30.18,10.0,Calm,Calm,-,N/A,,Clear,0,2012-11-05 08:35:00
3:55 AM,25.9,22.3,86,30.18,10.0,Calm,Calm,-,N/A,,Clear,0,2012-11-05 08:55:00
4:15 AM,26.8,22.8,85,30.18,10.0,Calm,Calm,-,N/A,,Clear,0,2012-11-05 09:15:00
4:35 AM,25.9,21.7,84,30.18,10.0,Calm,Calm,-,N/A,,Clear,0,2012-11-05 09:35:00
4:55 AM,24.4,21.0,87,30.18,10.0,Calm,Calm,-,N/A,,Clear,0,2012-11-05 09:55:00
5:15 AM,24.6,21.2,87,30.19,10.0,Calm,Calm,-,N/A,,Clear,0,2012-11-05 10:15:00
5:35 AM,23.5,20.1,87,30.19,10.0,Calm,Calm,-,N/A,,Clear,0,2012-11-05 10:35:00
5:55 AM,23.7,20.8,89,30.20,7.0,Calm,Calm,-,N/A,,Clear,0,2012-11-05 10:55:00
6:14 AM,23.7,21.0,89,30.20,7.0,Calm,Calm,-,N/A,,Clear,0,2012-11-05 11:14:00
6:35 AM,22.1,19.2,89,30.20,7.0,Calm,Calm,-,N/A,,Clear,0,2012-11-05 11:35:00
6:55 AM,22.8,20.1,89,30.20,10.0,Calm,Calm,-,N/A,,Clear,0,2012-11-05 11:55:00
7:15 AM,22.8,19.9,89,30.20,7.0,Calm,Calm,-,N/A,,Clear,0,2012-11-05 12:15:00
7:35 AM,22.6,20.1,90,30.20,7.0,Calm,Calm,-,N/A,,Clear,0,2012-11-05 12:35:00
7:55 AM,24.4,21.9,90,30.20,7.0,Calm,Calm,-,N/A,,Clear,0,2012-11-05 12:55:00
8:15 AM,28.8,25.7,88,30.20,10.0,Calm,Calm,-,N/A,,Clear,0,2012-11-05 13:15:00
8:35 AM,31.8,26.6,81,30.21,10.0,Calm,Calm,-,N/A,,Clear,0,2012-11-05 13:35:00
8:55 AM,32.5,27.1,80,30.21,10.0,North,3.5,-,N/A,,Scattered Clouds,350,2012-11-05 13:55:00
9:15 AM,33.4,26.6,76,30.21,10.0,Calm,Calm,-,N/A,,Mostly Cloudy,0,2012-11-05 14:15:00
9:35 AM,35.6,26.6,70,30.21,10.0,NNE,3.5,-,N/A,,Overcast,20,2012-11-05 14:35:00
9:55 AM,36.9,26.6,66,30.21,10.0,NE,3.5,-,N/A,,Overcast,40,2012-11-05 14:55:00
10:15 AM,38.5,26.8,63,30.21,10.0,NE,3.5,-,N/A,,Overcast,40,2012-11-05 15:15:00
10:35 AM,39.2,25.7,58,30.22,10.0,NNE,4.6,-,N/A,,Overcast,20,2012-11-05 15:35:00
10:55 AM,39.2,25.3,58,30.22,10.0,ENE,3.5,-,N/A,,Mostly Cloudy,60,2012-11-05 15:55:00
11:15 AM,39.2,25.0,57,30.22,10.0,NNE,3.5,-,N/A,,Mostly Cloudy,20,2012-11-05 16:15:00
11:35 AM,39.4,24.8,56,30.22,10.0,NNE,4.6,-,N/A,,Scattered Clouds,30,2012-11-05 16:35:00
11:55 AM,39.7,24.8,55,30.21,10.0,Calm,Calm,-,N/A,,Scattered Clouds,0,2012-11-05 16:55:00
12:15 PM,39.4,24.4,55,30.20,10.0,Calm,Calm,-,N/A,,Mostly Cloudy,0,2012-11-05 17:15:00
12:35 PM,41.9,25.0,51,30.19,10.0,Calm,Calm,-,N/A,,Overcast,0,2012-11-05 17:35:00
12:54 PM,42.4,25.5,51,30.18,10.0,Calm,Calm,-,N/A,,Overcast,0,2012-11-05 17:54:00
1:15 PM,42.4,24.8,50,30.18,10.0,ENE,5.8,-,N/A,,Overcast,60,2012-11-05 18:15:00
1:35 PM,40.1,24.1,53,30.18,10.0,Calm,Calm,-,N/A,,Scattered Clouds,0,2012-11-05 18:35:00
1:54 PM,40.8,24.4,52,30.18,10.0,Calm,Calm,-,N/A,,Clear,0,2012-11-05 18:54:00
2:15 PM,41.9,24.6,50,30.17,10.0,Calm,Calm,-,N/A,,Scattered Clouds,0,2012-11-05 19:15:00
2:34 PM,42.4,25.3,51,30.17,10.0,NE,6.9,-,N/A,,Overcast,50,2012-11-05 19:34:00
2:55 PM,41.2,24.6,52,30.18,10.0,East,5.8,-,N/A,,Scattered Clouds,100,2012-11-05 19:55:00
3:15 PM,41.9,25.0,51,30.17,10.0,ESE,5.8,-,N/A,,Clear,110,2012-11-05 20:15:00
3:34 PM,41.7,25.2,52,30.17,10.0,East,6.9,-,N/A,,Clear,100,2012-11-05 20:34:00
3:55 PM,41.0,24.4,52,30.17,10.0,ENE,6.9,-,N/A,,Clear,70,2012-11-05 20:55:00
4:15 PM,40.3,24.3,53,30.17,10.0,ENE,6.9,-,N/A,,Clear,70,2012-11-05 21:15:00
4:35 PM,40.1,24.3,53,30.17,10.0,East,5.8,-,N/A,,Clear,80,2012-11-05 21:35:00
4:55 PM,39.2,24.1,55,30.17,10.0,East,4.6,-,N/A,,Clear,100,2012-11-05 21:55:00
5:15 PM,37.8,24.3,58,30.16,10.0,Calm,Calm,-,N/A,,Clear,0,2012-11-05 22:15:00
5:35 PM,36.7,24.4,61,30.17,10.0,Calm,Calm,-,N/A,,Clear,0,2012-11-05 22:35:00
5:55 PM,35.4,24.3,64,30.17,10.0,Calm,Calm,-,N/A,,Clear,0,2012-11-05 22:55:00
6:14 PM,33.3,24.3,70,30.18,10.0,Calm,Calm,-,N/A,,Clear,0,2012-11-05 23:14:00
6:35 PM,31.1,23.9,75,30.18,10.0,Calm,Calm,-,N/A,,Clear,0,2012-11-05 23:35:00
6:55 PM,30.2,24.3,79,30.18,10.0,Calm,Calm,-,N/A,,Clear,0,2012-11-05 23:55:00
7:15 PM,29.8,23.7,78,30.18,10.0,Calm,Calm,-,N/A,,Clear,0,2012-11-06 00:15:00
7:35 PM,29.1,23.5,80,30.18,10.0,Calm,Calm,-,N/A,,Clear,0,2012-11-06 00:35:00
7:54 PM,29.3,23.7,80,30.18,10.0,Calm,Calm,-,N/A,,Clear,0,2012-11-06 00:54:00
8:15 PM,27.5,22.6,82,30.18,10.0,Calm,Calm,-,N/A,,Clear,0,2012-11-06 01:15:00
8:35 PM,28.0,23.5,83,30.18,10.0,Calm,Calm,-,N/A,,Clear,0,2012-11-06 01:35:00
8:54 PM,27.5,22.8,83,30.18,10.0,Calm,Calm,-,N/A,,Clear,0,2012-11-06 01:54:00
9:15 PM,27.7,23.0,83,30.18,10.0,Calm,Calm,-,N/A,,Clear,0,2012-11-06 02:15:00
9:34 PM,27.5,23.0,83,30.18,10.0,Calm,Calm,-,N/A,,Clear,0,2012-11-06 02:34:00
9:55 PM,26.6,22.8,86,30.18,10.0,Calm,Calm,-,N/A,,Clear,0,2012-11-06 02:55:00
10:15 PM,26.2,22.1,84,30.18,10.0,Calm,Calm,-,N/A,,Clear,0,2012-11-06 03:15:00
10:34 PM,26.6,22.6,85,30.18,10.0,Calm,Calm,-,N/A,,Clear,0,2012-11-06 03:34:00
10:55 PM,26.1,22.5,86,30.17,10.0,Calm,Calm,-,N/A,,Clear,0,2012-11-06 03:55:00
11:15 PM,24.6,20.7,85,30.17,10.0,Calm,Calm,-,N/A,,Clear,0,2012-11-06 04:15:00
11:34 PM,25.9,22.1,86,30.16,10.0,Calm,Calm,-,N/A,,Clear,0,2012-11-06 04:34:00
11:55 PM,25.7,21.7,85,30.16,7.0,Calm,Calm,-,N/A,,Clear,0,2012-11-06 04:55:00